Location: Hebron
(33.0265°N, 96.8636°W)
Time: 04:15:35
(UTC+00:00)

Okean 1 - Pass Details

Date: 10 July 2022
Orbit: 532 x 553 km, 82.5° (Epoch: 13 August)

Event Time Altitude Azimuth Distance (km) Brightness Sun altitude
Rises 09:48:31 0° 333° (NNW) 2,679 7.0 -17.7°
Reaches altitude 10° 09:51:14 10° 313° (NW) 1,784 5.9 -17.3°
Enters shadow 09:52:57 16° 288° (WNW) 1,435 5.1 -17.0°
